QPF
0.00 0.00 0.00 0.00 0.00 0.00 0.00 0.01 0.01 0.01 0.01 0.01 0.01 0.02 0.02 0.03 0.03 0.04 0.05 0.06 0.06 0.06 0.07 0.08 0.09 0.09 0.09 0.10 0.11 0.11 0.10 0.10 0.10 0.10 0.13 0.17 0.16 0.13 0.15 0.16 0.17 0.18 0.19 0.19
0.00 0.00 0.00 0.00 0.00 0.00 0.00 0.00 0.00 0.00 0.00 0.01 0.01 0.01 0.01 0.02 0.02 0.03 0.04 0.04 0.05 0.06 0.07 0.08 0.09 0.08 0.08 0.10 0.10 0.10 0.09 0.08 0.08 0.09 0.13 0.16 0.16 0.15 0.15 0.15 0.16 0.17 0.17 0.17
0.00 0.00 0.00 0.00 0.00 0.00 0.00 0.00 0.00 0.01 0.00 0.00 0.00 0.01 0.01 0.01 0.01 0.02 0.02 0.03 0.03 0.05 0.06 0.06 0.06 0.05 0.05 0.07 0.08 0.07 0.07 0.06 0.07 0.08 0.09 0.10 0.12 0.13 0.13 0.14 0.14 0.15 0.16 0.16
0.00 0.00 0.00 0.00 0.00 0.00 0.00 0.00 0.00 0.00 0.00 0.00 0.00 0.00 0.00 0.00 0.01 0.01 0.02 0.02 0.02 0.03 0.04 0.04 0.04 0.04 0.03 0.03 0.04 0.04 0.05 0.05 0.05 0.06 0.06 0.07 0.08 0.10 0.11 0.12 0.12 0.12 0.13 0.12
0.00 0.00 0.00 0.00 0.00 0.00 0.00 0.00 0.00 0.00 0.00 0.00 0.00 0.00 0.00 0.00 0.00 0.01 0.01 0.01 0.02 0.02 0.03 0.02 0.02 0.03 0.02 0.02 0.02 0.03 0.03 0.03 0.04 0.04 0.04 0.04 0.06 0.06 0.07 0.08 0.08 0.09 0.10 0.10
0.00 0.00 0.00 0.00 0.00 0.00 0.00 0.00 0.00 0.00 0.00 0.00 0.00 0.00 0.00 0.00 0.00 0.00 0.01 0.01 0.01 0.02 0.02 0.02 0.02 0.02 0.01 0.01 0.02 0.03 0.03 0.03 0.02 0.02 0.02 0.02 0.03 0.04 0.04 0.04 0.04 0.04 0.05 0.06
0.00 0.00 0.00 0.00 0.00 0.00 0.00 0.00 0.00 0.00 0.00 0.00 0.00 0.00 0.00 0.00 0.00 0.00 0.01 0.01 0.02 0.02 0.02 0.02 0.02 0.02 0.01 0.01 0.02 0.03 0.03 0.02 0.02 0.02 0.01 0.01 0.02 0.03 0.04 0.03 0.03 0.02 0.02 0.03
0.00 0.00 0.00 0.00 0.00 0.00 0.00 0.00 0.00 0.00 0.00 0.00 0.00 0.00 0.00 0.00 0.00 0.00 0.01 0.01 0.02 0.02 0.02 0.02 0.02 0.02 0.01 0.02 0.02 0.02 0.02 0.03 0.03 0.03 0.02 0.01 0.01 0.02 0.03 0.04 0.03 0.02 0.02 0.02
0.00 0.00 0.00 0.00 0.00 0.00 0.00 0.00 0.00 0.00 0.00 0.00 0.00 0.00 0.00 0.00 0.00 0.00 0.00 0.01 0.01 0.01 0.01 0.01 0.02 0.02 0.02 0.02 0.02 0.02 0.02 0.02 0.02 0.03 0.03 0.03 0.03 0.04 0.04 0.05 0.05 0.05 0.04 0.03
0.00 0.00 0.00 0.00 0.00 0.00 0.00 0.00 0.00 0.00 0.00 0.00 0.00 0.00 0.00 0.00 0.00 0.00 0.00 0.00 0.00 0.01 0.01 0.01 0.01 0.01 0.02 0.02 0.02 0.02 0.02 0.01 0.01 0.01 0.02 0.02 0.03 0.04 0.05 0.06 0.06 0.06 0.05 0.05
0.00 0.00 0.00 0.00 0.00 0.00 0.00 0.00 0.00 0.00 0.00 0.00 0.00 0.00 0.00 0.00 0.00 0.00 0.00 0.00 0.00 0.00 0.00 0.00 0.01 0.01 0.01 0.01 0.01 0.01 0.01 0.01 0.01 0.01 0.01 0.01 0.02 0.02 0.03 0.05 0.06 0.07 0.06 0.07
0.00 0.00 0.00 0.00 0.00 0.00 0.00 0.00 0.00 0.00 0.00 0.00 0.00 0.00 0.00 0.00 0.00 0.00 0.00 0.00 0.00 0.00 0.00 0.00 0.00 0.01 0.01 0.01 0.01 0.01 0.01 0.01 0.01 0.01 0.01 0.02 0.02 0.03 0.03 0.03 0.05 0.07 0.08 0.08
0.00 0.00 0.00 0.00 0.00 0.00 0.00 0.00 0.00 0.00 0.00 0.00 0.00 0.00 0.00 0.00 0.00 0.00 0.00 0.00 0.00 0.00 0.00 0.00 0.00 0.00 0.00 0.00 0.01 0.01 0.01 0.01 0.01 0.01 0.01 0.02 0.03 0.03 0.03 0.03 0.03 0.04 0.05 0.07
0.00 0.00 0.00 0.00 0.00 0.00 0.00 0.00 0.00 0.00 0.00 0.00 0.00 0.00 0.00 0.00 0.00 0.00 0.00 0.00 0.00 0.00 0.00 0.00 0.00 0.00 0.00 0.00 0.00 0.00 0.01 0.01 0.01 0.01 0.02 0.02 0.03 0.03 0.03 0.03 0.03 0.03 0.03 0.04
0.00 0.00 0.00 0.00 0.00 0.00 0.00 0.00 0.00 0.00 0.00 0.00 0.00 0.00 0.00 0.00 0.00 0.00 0.00 0.00 0.00 0.00 0.00 0.00 0.00 0.00 0.00 0.00 0.00 0.00 0.00 0.01 0.01 0.01 0.01 0.01 0.02 0.02 0.02 0.02 0.02 0.02 0.02 0.03
0.00 0.00 0.00 0.00 0.00 0.00 0.00 0.00 0.00 0.00 0.00 0.00 0.00 0.00 0.00 0.00 0.00 0.00 0.00 0.00 0.00 0.00 0.00 0.00 0.00 0.00 0.00 0.00 0.00 0.00 0.00 0.01 0.01 0.01 0.01 0.01 0.01 0.02 0.02 0.02 0.02 0.01 0.02 0.02
0.00 0.00 0.00 0.00 0.00 0.00 0.00 0.00 0.00 0.00 0.00 0.00 0.00 0.00 0.00 0.00 0.00 0.00 0.00 0.00 0.00 0.00 0.00 0.00 0.00 0.00 0.00 0.00 0.00 0.00 0.01 0.01 0.01 0.01 0.01 0.01 0.01 0.02 0.02 0.02 0.02 0.02 0.02 0.02
0.00 0.00 0.00 0.00 0.00 0.00 0.00 0.00 0.00 0.00 0.00 0.00 0.00 0.00 0.00 0.00 0.00 0.00 0.00 0.00 0.00 0.00 0.00 0.00 0.00 0.00 0.00 0.00 0.00 0.01 0.01 0.01 0.01 0.01 0.01 0.02 0.02 0.02 0.02 0.02 0.03 0.03 0.03 0.03
0.00 0.00 0.00 0.00 0.00 0.00 0.00 0.00 0.00 0.00 0.00 0.00 0.00 0.00 0.00 0.00 0.00 0.00 0.00 0.00 0.01 0.01 0.00 0.00 0.00 0.00 0.00 0.00 0.00 0.01 0.01 0.01 0.01 0.01 0.01 0.02 0.02 0.02 0.02 0.03 0.03 0.03 0.03 0.03
0.00 0.00 0.00 0.00 0.00 0.00 0.00 0.00 0.00 0.00 0.00 0.00 0.00 0.00 0.00 0.00 0.00 0.00 0.00 0.00 0.00 0.00 0.00 0.00 0.00 0.00 0.00 0.00 0.01 0.01 0.01 0.01 0.01 0.01 0.01 0.02 0.02 0.02 0.03 0.03 0.03 0.04 0.04 0.04
0.00 0.00 0.00 0.00 0.00 0.00 0.00 0.00 0.00 0.00 0.00 0.01 0.01 0.01 0.00 0.00 0.00 0.00 0.00 0.00 0.00 0.00 0.00 0.00 0.00 0.00 0.00 0.01 0.01 0.01 0.01 0.01 0.01 0.01 0.01 0.01 0.02 0.02 0.02 0.03 0.04 0.04 0.04 0.04
0.00 0.00 0.00 0.00 0.00 0.00 0.00 0.01 0.01 0.01 0.01 0.01 0.01 0.01 0.00 0.00 0.00 0.00 0.00 0.00 0.00 0.00 0.00 0.00 0.00 0.01 0.01 0.01 0.01 0.01 0.01 0.01 0.01 0.01 0.01 0.01 0.01 0.02 0.02 0.03 0.03 0.04 0.04 0.04
0.00 0.00 0.00 0.00 0.00 0.00 0.01 0.01 0.01 0.01 0.01 0.01 0.01 0.01 0.00 0.00 0.00 0.00 0.00 0.00 0.00 0.00 0.00 0.00 0.01 0.01 0.01 0.01 0.01 0.01 0.01 0.01 0.01 0.01 0.01 0.01 0.01 0.01 0.02 0.02 0.02 0.03 0.03 0.04
0.00 0.00 0.00 0.00 0.00 0.01 0.01 0.01 0.01 0.01 0.01 0.01 0.01 0.00 0.00 0.00 0.00 0.00 0.00 0.00 0.00 0.00 0.00 0.01 0.01 0.01 0.01 0.01 0.01 0.01 0.01 0.01 0.01 0.01 0.01 0.01 0.01 0.01 0.01 0.01 0.02 0.02 0.02 0.03
0.00 0.00 0.00 0.00 0.00 0.01 0.01 0.01 0.01 0.01 0.01 0.00 0.00 0.00 0.00 0.01 0.01 0.00 0.00 0.00 0.00 0.00 0.00 0.00 0.01 0.01 0.01 0.01 0.01 0.01 0.01 0.01 0.01 0.01 0.01 0.01 0.01 0.01 0.01 0.01 0.01 0.01 0.01 0.02
0.00 0.00 0.00 0.00 0.00 0.00 0.00 0.00 0.01 0.01 0.01 0.01 0.01 0.00 0.00 0.00 0.00 0.00 0.01 0.01 0.01 0.01 0.00 0.00 0.00 0.00 0.00 0.00 0.00 0.01 0.01 0.01 0.01 0.01 0.01 0.01 0.01 0.01 0.01 0.01 0.01 0.01 0.01 0.01
0.00 0.00 0.00 0.00 0.00 0.00 0.00 0.00 0.01 0.01 0.00 0.01 0.00 0.00 0.00 0.01 0.01 0.01 0.01 0.01 0.01 0.01 0.01 0.01 0.01 0.01 0.00 0.00 0.00 0.00 0.00 0.01 0.01 0.01 0.01 0.00 0.00 0.00 0.00 0.01 0.01 0.01 0.01 0.01
MSLP
1016.21 1016.03 1015.85 1015.67 1015.51 1015.38 1015.31 1015.32 1015.41 1015.60 1015.87 1016.23 1016.64 1017.08 1017.50 1017.87 1018.16 1018.33 1018.36 1018.24 1017.97 1017.54 1016.98 1016.30 1015.51 1014.63 1013.67 1012.66 1011.59 1010.49 1009.38 1008.27 1007.19 1006.17 1005.24 1004.42 1003.74 1003.22 1002.88 1002.71 1002.72 1002.88 1003.18 1003.58
1015.95 1015.75 1015.55 1015.38 1015.23 1015.13 1015.09 1015.13 1015.26 1015.47 1015.78 1016.15 1016.59 1017.05 1017.50 1017.90 1018.23 1018.46 1018.56 1018.52 1018.34 1018.01 1017.56 1016.99 1016.31 1015.55 1014.72 1013.82 1012.87 1011.89 1010.90 1009.90 1008.92 1007.98 1007.11 1006.33 1005.66 1005.12 1004.71 1004.45 1004.32 1004.33 1004.45 1004.66
1015.58 1015.36 1015.15 1014.98 1014.84 1014.77 1014.76 1014.84 1015.01 1015.26 1015.61 1016.02 1016.50 1016.99 1017.48 1017.94 1018.32 1018.61 1018.78 1018.83 1018.73 1018.49 1018.12 1017.64 1017.06 1016.38 1015.64 1014.84 1013.99 1013.13 1012.24 1011.36 1010.50 1009.68 1008.90 1008.20 1007.58 1007.05 1006.63 1006.31 1006.10 1005.98 1005.95 1006.00
1015.18 1014.93 1014.71 1014.53 1014.40 1014.35 1014.37 1014.49 1014.70 1015.01 1015.40 1015.87 1016.39 1016.93 1017.48 1017.99 1018.43 1018.79 1019.03 1019.14 1019.11 1018.95 1018.64 1018.22 1017.70 1017.09 1016.41 1015.67 1014.91 1014.12 1013.34 1012.56 1011.81 1011.10 1010.44 1009.83 1009.29 1008.82 1008.42 1008.10 1007.84 1007.65 1007.51 1007.43
1014.80 1014.52 1014.28 1014.09 1013.97 1013.93 1013.99 1014.15 1014.40 1014.76 1015.20 1015.72 1016.29 1016.89 1017.49 1018.05 1018.56 1018.97 1019.27 1019.44 1019.47 1019.35 1019.10 1018.72 1018.24 1017.66 1017.02 1016.32 1015.60 1014.88 1014.16 1013.47 1012.82 1012.21 1011.65 1011.14 1010.69 1010.29 1009.95 1009.64 1009.38 1009.16 1008.96 1008.80
1014.47 1014.16 1013.90 1013.71 1013.59 1013.57 1013.66 1013.86 1014.16 1014.56 1015.05 1015.61 1016.23 1016.87 1017.51 1018.12 1018.67 1019.13 1019.48 1019.69 1019.76 1019.69 1019.47 1019.13 1018.67 1018.12 1017.50 1016.83 1016.14 1015.45 1014.78 1014.15 1013.57 1013.03 1012.56 1012.14 1011.77 1011.44 1011.15 1010.89 1010.65 1010.42 1010.20 1009.98
1014.21 1013.87 1013.60 1013.40 1013.29 1013.30 1013.42 1013.65 1013.99 1014.43 1014.96 1015.56 1016.21 1016.88 1017.54 1018.18 1018.75 1019.24 1019.62 1019.87 1019.97 1019.94 1019.76 1019.44 1019.02 1018.49 1017.90 1017.25 1016.59 1015.93 1015.29 1014.70 1014.15 1013.67 1013.25 1012.89 1012.58 1012.30 1012.07 1011.84 1011.63 1011.41 1011.18 1010.95
1013.98 1013.63 1013.35 1013.16 1013.08 1013.11 1013.26 1013.53 1013.90 1014.38 1014.93 1015.55 1016.21 1016.89 1017.57 1018.20 1018.78 1019.28 1019.67 1019.95 1020.08 1020.08 1019.94 1019.67 1019.29 1018.81 1018.25 1017.64 1017.01 1016.38 1015.77 1015.20 1014.69 1014.23 1013.84 1013.51 1013.22 1012.99 1012.78 1012.58 1012.38 1012.17 1011.94 1011.69
1013.76 1013.41 1013.14 1012.98 1012.93 1012.99 1013.18 1013.48 1013.88 1014.38 1014.95 1015.57 1016.23 1016.90 1017.55 1018.18 1018.75 1019.24 1019.63 1019.92 1020.08 1020.12 1020.03 1019.81 1019.49 1019.08 1018.58 1018.03 1017.46 1016.87 1016.30 1015.75 1015.26 1014.82 1014.43 1014.10 1013.83 1013.59 1013.38 1013.18 1012.98 1012.77 1012.53 1012.26
1013.53 1013.19 1012.95 1012.83 1012.81 1012.92 1013.14 1013.47 1013.90 1014.40 1014.97 1015.59 1016.22 1016.87 1017.50 1018.09 1018.63 1019.11 1019.50 1019.79 1019.97 1020.05 1020.01 1019.87 1019.63 1019.30 1018.89 1018.42 1017.92 1017.40 1016.88 1016.38 1015.91 1015.47 1015.09 1014.75 1014.46 1014.21 1013.97 1013.75 1013.53 1013.29 1013.02 1012.72
1013.28 1012.98 1012.78 1012.69 1012.72 1012.87 1013.12 1013.47 1013.91 1014.42 1014.97 1015.57 1016.18 1016.79 1017.38 1017.94 1018.44 1018.89 1019.27 1019.56 1019.76 1019.88 1019.90 1019.83 1019.67 1019.44 1019.14 1018.78 1018.37 1017.94 1017.49 1017.05 1016.61 1016.20 1015.82 1015.47 1015.15 1014.86 1014.60 1014.34 1014.07 1013.80 1013.49 1013.15
1013.03 1012.77 1012.62 1012.58 1012.65 1012.83 1013.10 1013.46 1013.90 1014.39 1014.92 1015.49 1016.07 1016.63 1017.19 1017.71 1018.18 1018.60 1018.96 1019.25 1019.47 1019.61 1019.68 1019.68 1019.61 1019.48 1019.29 1019.04 1018.75 1018.42 1018.06 1017.69 1017.31 1016.93 1016.56 1016.21 1015.88 1015.56 1015.25 1014.95 1014.64 1014.31 1013.96 1013.58
1012.81 1012.60 1012.49 1012.50 1012.59 1012.79 1013.07 1013.42 1013.83 1014.30 1014.80 1015.33 1015.87 1016.41 1016.92 1017.41 1017.85 1018.25 1018.59 1018.87 1019.10 1019.26 1019.37 1019.42 1019.43 1019.39 1019.30 1019.16 1018.98 1018.76 1018.51 1018.23 1017.92 1017.59 1017.26 1016.91 1016.57 1016.23 1015.89 1015.55 1015.20 1014.84 1014.45 1014.03
1012.65 1012.49 1012.43 1012.46 1012.57 1012.76 1013.02 1013.34 1013.71 1014.14 1014.60 1015.09 1015.60 1016.10 1016.59 1017.05 1017.48 1017.86 1018.18 1018.46 1018.68 1018.85 1018.98 1019.08 1019.14 1019.16 1019.16 1019.12 1019.05 1018.94 1018.79 1018.60 1018.37 1018.11 1017.82 1017.50 1017.17 1016.82 1016.47 1016.10 1015.72 1015.33 1014.92 1014.47
1012.57 1012.46 1012.43 1012.47 1012.57 1012.73 1012.94 1013.21 1013.53 1013.90 1014.32 1014.77 1015.24 1015.72 1016.19 1016.65 1017.06 1017.43 1017.75 1018.02 1018.24 1018.41 1018.55 1018.66 1018.76 1018.83 1018.89 1018.93 1018.94 1018.92 1018.87 1018.77 1018.63 1018.43 1018.20 1017.92 1017.61 1017.27 1016.92 1016.54 1016.15 1015.75 1015.32 1014.87
1012.56 1012.49 1012.48 1012.52 1012.59 1012.70 1012.85 1013.04 1013.29 1013.59 1013.95 1014.36 1014.81 1015.27 1015.74 1016.19 1016.61 1016.99 1017.31 1017.58 1017.79 1017.96 1018.10 1018.22 1018.33 1018.43 1018.53 1018.62 1018.70 1018.75 1018.78 1018.76 1018.69 1018.56 1018.38 1018.15 1017.87 1017.55 1017.20 1016.84 1016.45 1016.05 1015.63 1015.19
1012.60 1012.57 1012.57 1012.58 1012.61 1012.65 1012.72 1012.83 1012.99 1013.22 1013.52 1013.89 1014.31 1014.77 1015.24 1015.71 1016.14 1016.54 1016.87 1017.15 1017.36 1017.53 1017.67 1017.79 1017.90 1018.01 1018.12 1018.25 1018.37 1018.47 1018.55 1018.59 1018.57 1018.50 1018.37 1018.17 1017.93 1017.63 1017.31 1016.96 1016.59 1016.21 1015.82 1015.40
1012.67 1012.67 1012.66 1012.64 1012.61 1012.57 1012.55 1012.57 1012.65 1012.81 1013.05 1013.37 1013.77 1014.22 1014.71 1015.19 1015.65 1016.07 1016.43 1016.72 1016.95 1017.12 1017.26 1017.37 1017.48 1017.59 1017.71 1017.85 1017.98 1018.11 1018.22 1018.30 1018.32 1018.29 1018.19 1018.03 1017.80 1017.54 1017.24 1016.91 1016.57 1016.22 1015.86 1015.48
1012.75 1012.76 1012.74 1012.68 1012.58 1012.46 1012.35 1012.29 1012.28 1012.36 1012.54 1012.83 1013.21 1013.65 1014.15 1014.65 1015.14 1015.58 1015.97 1016.28 1016.53 1016.71 1016.86 1016.97 1017.07 1017.18 1017.30 1017.43 1017.57 1017.71 1017.83 1017.91 1017.95 1017.94 1017.85 1017.71 1017.51 1017.27 1016.99 1016.70 1016.39 1016.08 1015.77 1015.44
1012.82 1012.83 1012.79 1012.68 1012.51 1012.32 1012.13 1011.98 1011.90 1011.92 1012.05 1012.29 1012.65 1013.08 1013.58 1014.10 1014.60 1015.07 1015.48 1015.82 1016.08 1016.28 1016.43 1016.55 1016.65 1016.75 1016.86 1016.98 1017.11 1017.24 1017.35 1017.43 1017.47 1017.45 1017.38 1017.25 1017.07 1016.85 1016.60 1016.34 1016.08 1015.82 1015.57 1015.30
1012.88 1012.88 1012.80 1012.64 1012.42 1012.16 1011.91 1011.69 1011.55 1011.51 1011.59 1011.79 1012.12 1012.54 1013.02 1013.54 1014.05 1014.53 1014.95 1015.30 1015.58 1015.79 1015.95 1016.07 1016.16 1016.26 1016.35 1016.46 1016.57 1016.67 1016.77 1016.83 1016.86 1016.84 1016.77 1016.65 1016.49 1016.30 1016.09 1015.88 1015.67 1015.47 1015.28 1015.09
1012.93 1012.90 1012.78 1012.58 1012.31 1012.00 1011.69 1011.43 1011.24 1011.15 1011.19 1011.36 1011.65 1012.05 1012.51 1013.00 1013.50 1013.97 1014.38 1014.73 1015.01 1015.22 1015.37 1015.49 1015.58 1015.66 1015.73 1015.82 1015.90 1015.99 1016.06 1016.11 1016.12 1016.10 1016.04 1015.93 1015.80 1015.65 1015.49 1015.33 1015.19 1015.06 1014.95 1014.83
1012.95 1012.89 1012.73 1012.49 1012.18 1011.84 1011.50 1011.21 1010.99 1010.87 1010.89 1011.02 1011.28 1011.63 1012.05 1012.51 1012.97 1013.41 1013.79 1014.12 1014.37 1014.57 1014.70 1014.80 1014.87 1014.94 1014.99 1015.05 1015.11 1015.17 1015.22 1015.26 1015.27 1015.25 1015.20 1015.13 1015.03 1014.93 1014.83 1014.75 1014.68 1014.62 1014.59 1014.55
1012.90 1012.81 1012.62 1012.35 1012.03 1011.67 1011.33 1011.03 1010.81 1010.69 1010.68 1010.79 1011.02 1011.33 1011.70 1012.10 1012.51 1012.89 1013.22 1013.50 1013.71 1013.87 1013.97 1014.04 1014.09 1014.12 1014.15 1014.19 1014.22 1014.27 1014.30 1014.33 1014.34 1014.33 1014.31 1014.28 1014.24 1014.20 1014.17 1014.16 1014.17 1014.20 1014.24 1014.27
1012.75 1012.63 1012.42 1012.15 1011.83 1011.49 1011.17 1010.89 1010.69 1010.59 1010.59 1010.69 1010.89 1011.16 1011.48 1011.82 1012.15 1012.46 1012.73 1012.93 1013.09 1013.19 1013.25 1013.27 1013.28 1013.28 1013.28 1013.29 1013.31 1013.33 1013.36 1013.39 1013.41 1013.43 1013.45 1013.47 1013.48 1013.51 1013.56 1013.62 1013.71 1013.80 1013.91 1014.01
1012.44 1012.31 1012.11 1011.85 1011.56 1011.27 1011.00 1010.79 1010.64 1010.58 1010.61 1010.72 1010.91 1011.15 1011.42 1011.70 1011.96 1012.19 1012.37 1012.50 1012.58 1012.62 1012.61 1012.59 1012.55 1012.51 1012.48 1012.46 1012.46 1012.48 1012.50 1012.54 1012.59 1012.63 1012.69 1012.76 1012.84 1012.93 1013.04 1013.17 1013.31 1013.46 1013.61 1013.75
1011.96 1011.84 1011.66 1011.45 1011.23 1011.02 1010.84 1010.71 1010.65 1010.66 1010.74 1010.89 1011.09 1011.31 1011.54 1011.77 1011.96 1012.11 1012.22 1012.27 1012.27 1012.23 1012.17 1012.08 1012.00 1011.92 1011.85 1011.81 1011.79 1011.80 1011.83 1011.87 1011.94 1012.01 1012.11 1012.22 1012.34 1012.48 1012.64 1012.81 1012.99 1013.17 1013.34 1013.49
Thickness
5514 5516 5514 5517 5519 5515 5512 5522 5525 5534 5529 5534 5531 5527 5524 5521 5518 5515 5512 5510 5508 5507 5507 5506 5506 5507 5508 5508 5510 5512 5515 5517 5518 5521 5523 5526 5528 5530 5532 5533 5534 5534 5534 5535
5511 5513 5513 5516 5524 5522 5520 5520 5523 5525 5529 5534 5529 5524 5522 5519 5516 5514 5511 5508 5505 5503 5502 5502 5502 5502 5503 5503 5504 5506 5509 5510 5512 5514 5515 5517 5518 5521 5522 5523 5523 5523 5523 5524
5522 5515 5515 5532 5537 5529 5527 5528 5528 5530 5537 5530 5525 5522 5521 5518 5515 5513 5510 5507 5503 5501 5499 5498 5497 5497 5497 5498 5499 5501 5503 5504 5505 5507 5507 5507 5508 5510 5510 5511 5512 5512 5512 5512
5514 5518 5526 5547 5532 5532 5531 5531 5530 5532 5532 5529 5527 5522 5519 5516 5513 5512 5508 5505 5502 5499 5497 5495 5494 5493 5493 5493 5495 5496 5496 5497 5497 5497 5498 5499 5500 5500 5500 5501 5501 5500 5500 5499
5510 5522 5536 5541 5530 5527 5528 5535 5535 5532 5531 5526 5521 5518 5522 5515 5511 5509 5506 5503 5500 5496 5494 5492 5490 5489 5489 5488 5489 5490 5490 5489 5489 5489 5490 5491 5491 5491 5491 5491 5490 5488 5487 5487
5503 5514 5534 5545 5529 5523 5526 5536 5536 5531 5528 5523 5517 5527 5531 5517 5509 5506 5502 5499 5495 5492 5490 5488 5486 5485 5484 5484 5483 5483 5482 5482 5482 5482 5483 5482 5482 5482 5482 5481 5480 5478 5477 5476
5502 5512 5535 5535 5521 5519 5531 5541 5530 5526 5525 5520 5520 5525 5520 5511 5506 5502 5499 5495 5491 5488 5486 5484 5481 5480 5480 5479 5478 5476 5476 5476 5476 5476 5475 5475 5474 5474 5473 5473 5472 5471 5470 5469
5504 5510 5531 5524 5517 5525 5535 5527 5523 5522 5520 5517 5516 5512 5508 5504 5502 5498 5494 5491 5487 5484 5482 5479 5476 5475 5475 5474 5472 5471 5470 5470 5470 5469 5468 5467 5467 5466 5465 5465 5464 5464 5463 5461
5517 5530 5527 5518 5523 5523 5518 5518 5518 5517 5514 5511 5508 5506 5503 5500 5497 5494 5491 5487 5483 5480 5477 5475 5472 5470 5470 5468 5466 5465 5464 5464 5463 5462 5461 5459 5459 5458 5458 5457 5456 5455 5453 5452
5504 5520 5520 5516 5515 5513 5511 5511 5512 5510 5507 5505 5503 5502 5499 5496 5493 5489 5486 5482 5478 5475 5473 5471 5467 5465 5463 5461 5458 5457 5457 5456 5455 5454 5453 5451 5450 5449 5447 5446 5445 5444 5443 5441
5503 5515 5514 5518 5513 5511 5508 5506 5504 5502 5500 5499 5497 5496 5493 5490 5487 5484 5480 5476 5472 5469 5468 5466 5462 5459 5456 5453 5450 5449 5449 5448 5447 5445 5443 5441 5439 5437 5435 5434 5431 5430 5430 5429
5517 5519 5515 5519 5514 5507 5503 5501 5499 5497 5495 5493 5491 5490 5487 5484 5481 5477 5473 5469 5466 5463 5461 5459 5456 5453 5449 5446 5443 5441 5440 5439 5437 5435 5432 5430 5429 5427 5424 5421 5420 5418 5417 5416
5509 5505 5503 5504 5502 5500 5497 5496 5493 5491 5490 5487 5485 5482 5479 5476 5473 5468 5464 5461 5458 5456 5454 5451 5447 5444 5441 5437 5434 5432 5430 5428 5426 5424 5422 5419 5417 5416 5415 5413 5410 5408 5406 5405
5494 5491 5493 5496 5495 5493 5489 5487 5485 5482 5481 5479 5477 5474 5470 5467 5464 5460 5457 5454 5450 5447 5444 5441 5439 5436 5432 5428 5425 5422 5420 5417 5415 5414 5411 5408 5406 5404 5402 5401 5401 5400 5397 5395
5488 5485 5487 5488 5486 5483 5480 5477 5475 5475 5474 5471 5468 5465 5462 5459 5456 5453 5449 5444 5440 5438 5436 5433 5430 5427 5423 5419 5416 5413 5410 5408 5405 5403 5400 5398 5396 5393 5391 5390 5389 5388 5387 5385
5481 5478 5476 5475 5476 5475 5472 5469 5468 5469 5466 5463 5460 5457 5455 5452 5449 5445 5440 5436 5432 5431 5427 5424 5421 5418 5413 5410 5406 5403 5400 5397 5394 5393 5390 5388 5385 5383 5380 5379 5377 5376 5375 5373
5472 5473 5471 5469 5469 5468 5466 5464 5462 5460 5458 5455 5453 5450 5446 5443 5439 5436 5431 5427 5424 5421 5418 5415 5412 5408 5404 5400 5397 5395 5392 5389 5385 5383 5380 5377 5374 5372 5369 5367 5366 5364 5362 5360
5468 5468 5466 5464 5462 5460 5459 5456 5454 5452 5450 5448 5444 5440 5437 5435 5433 5429 5424 5419 5414 5411 5408 5405 5402 5398 5394 5391 5388 5385 5382 5379 5376 5373 5370 5367 5364 5361 5358 5357 5355 5353 5351 5349
5460 5457 5455 5453 5451 5449 5449 5448 5447 5445 5443 5439 5435 5432 5430 5428 5425 5420 5415 5410 5406 5404 5401 5396 5392 5388 5385 5382 5378 5375 5372 5369 5365 5362 5359 5356 5353 5350 5347 5345 5343 5341 5338 5336
5450 5448 5445 5443 5441 5439 5438 5439 5437 5436 5433 5430 5427 5424 5421 5418 5414 5409 5405 5402 5401 5398 5393 5387 5383 5380 5376 5373 5369 5366 5363 5359 5355 5352 5348 5345 5342 5339 5336 5334 5331 5329 5327 5325
5442 5439 5436 5433 5431 5429 5428 5428 5427 5426 5423 5420 5418 5416 5412 5408 5403 5399 5396 5394 5391 5386 5382 5377 5374 5371 5367 5364 5360 5357 5353 5349 5346 5342 5338 5335 5331 5328 5325 5322 5319 5317 5315 5313
5432 5429 5426 5424 5421 5420 5418 5417 5416 5414 5412 5410 5408 5405 5401 5397 5393 5389 5387 5385 5382 5376 5372 5369 5365 5361 5358 5354 5351 5347 5344 5339 5336 5332 5328 5324 5321 5317 5314 5311 5308 5305 5303 5301
5422 5418 5416 5413 5411 5409 5407 5405 5404 5403 5401 5399 5397 5394 5392 5389 5385 5381 5378 5375 5370 5366 5362 5359 5356 5352 5348 5344 5340 5337 5333 5329 5326 5322 5318 5314 5310 5306 5303 5300 5297 5294 5292 5290
5411 5408 5405 5402 5399 5396 5395 5395 5392 5390 5389 5387 5385 5382 5379 5377 5374 5371 5368 5364 5360 5356 5352 5349 5345 5341 5337 5333 5329 5326 5323 5319 5315 5311 5307 5303 5299 5296 5292 5289 5286 5284 5282 5280
5400 5396 5393 5391 5389 5388 5386 5382 5380 5378 5376 5375 5372 5370 5367 5366 5364 5361 5357 5353 5350 5345 5341 5338 5334 5330 5326 5323 5319 5316 5312 5309 5305 5301 5297 5293 5289 5286 5283 5279 5277 5274 5272 5271
5391 5389 5387 5384 5382 5378 5375 5372 5371 5369 5367 5364 5361 5359 5356 5354 5351 5348 5345 5342 5338 5334 5330 5326 5322 5319 5316 5312 5309 5305 5302 5298 5294 5291 5287 5283 5280 5277 5274 5271 5268 5266 5264 5262
5381 5378 5375 5373 5371 5367 5365 5363 5362 5360 5357 5355 5351 5348 5345 5342 5339 5337 5333 5330 5326 5322 5319 5315 5311 5308 5305 5301 5298 5295 5291 5288 5284 5280 5277 5274 5270 5267 5265 5262 5260 5258 5256 5254